Regional Weather Roundup
Issued by NWS

Home | Current Version | Previous Version | Text Only | Print | Product List | Glossary Off
Versions: 1 2 3 4 5 6 7 8 9 10 11 12 13 14 15 16 17 18 19 20 21 22 23 24 25 26 27 28 29 30 31 32 33 34 35 36 37 38 39 40 41 42 43 44 45 46 47 48 49 50

000
ASUS43 KDMX 190601
RWRIA

WEATHER ROUNDUP FOR IOWA
NATIONAL WEATHER SERVICE DES MOINES IA
100 AM CDT THU APR 19 2018

NOTE: "FAIR" INDICATES FEW OR NO CLOUDS BELOW 12,000 FEET WITH NO
SIGNIFICANT WEATHER AND/OR OBSTRUCTIONS TO VISIBILITY.

* - THESE STATIONS ARE NOT NWS STATIONS...THUS NOT UNDER NWS
QUALITY CONTROL.  THEY ALSO DO NOT REPORT WEATHER SUCH
AS PRECIPITATION OR FOG.

IAZ001>003-012>014-020>022-031>034-043>046-190700-
   NORTHWEST IOWA

CITY           SKY/WX    TMP DP  RH WIND       PRES   REMARKS
CARROLL *      CLOUDY    32  30  93 N13       30.24R WCI  22
CHEROKEE *     PTCLDY    32  32  98 CALM      30.26R
DENISON *      CLEAR     30  28  93 NW6       30.27R WCI  24
LE MARS *      PTCLDY    32  32 100 CALM      30.27R
ORANGE CITY *  CLOUDY    34  30  86 N8        30.26R WCI  27
SHELDON *      PTCLDY    30  30 100 N12       30.24R WCI  21
SIOUX CITY     CLOUDY    34  30  85 W6        30.28R WCI  29
6HR MIN TEMP:  33; 6HR MAX TEMP:  37; 6HR PCP:  0.01;

SPENCER        PTCLDY    32  27  81 NW9       30.24R WCI  24
6HR MIN TEMP:  31; 6HR MAX TEMP:  34; 6HR PCP: TRACE;

STORM LAKE *   CLOUDY    32  30  93 NW12      30.24R WCI  23
$$

IAZ055>058-069>071-079>083-090>094-190700-
   SOUTHWEST IOWA

CITY           SKY/WX    TMP DP  RH WIND       PRES   REMARKS
ATLANTIC *     CLEAR     32  32 100 N8        30.25R WCI  25
AUDUBON *      MOCLDY    32  28  86 N8        30.25R WCI  25
CLARINDA *     CLOUDY    32  30  93 N9        30.27R WCI  24
COUNCIL BLFS * PTCLDY    34  34 100 N9G17     30.25R WCI  26
CRESTON *      CLEAR     30  27  86 NW9       30.23R WCI  22
HARLAN  *      CLEAR     30  30 100 NW10      30.29R WCI  21
LAMONI         CLOUDY    33  26  75 N10       30.20R WCI  25
6HR MIN TEMP:  33; 6HR MAX TEMP:  36;

RED OAK *      CLEAR     32  30  93 N9        30.25R WCI  24
SHENANDOAH *   CLOUDY    34  30  86 N9        30.26R WCI  26
$$

IAZ047>049-059>061-072>074-084-190700-
   CENTRAL IOWA

CITY           SKY/WX    TMP DP  RH WIND       PRES   REMARKS
AMES           CLOUDY    32  29  88 NW10      30.21R WCI  24
6HR MIN TEMP:  32; 6HR MAX TEMP:  34;

ANKENY *       PTCLDY    32  28  86 NW9G16    30.23R WCI  24
BOONE *        MOCLDY    32  30  93 MISG      30.20R
CHARITON *     CLOUDY    30  28  93 NW14      30.20R WCI  20
DES MOINES     PTCLDY    32  28  85 NW8       30.22R WCI  25
6HR MIN TEMP:  32; 6HR MAX TEMP:  36;

GRINNELL*      CLOUDY    30  29  96 NW8       30.18R WCI  23
KNOXVILLE *    CLOUDY    32  28  86 NW15G21   30.19R WCI  22
MARSHALLTOWN   CLOUDY    32  30  92 NW13      30.17R WCI  22
6HR MIN TEMP:  29; 6HR MAX TEMP:  32;

NEWTON *       CLOUDY    32  30  93 NW10      30.19R WCI  24
PELLA *        MOCLDY    32  29  89 NW9       30.21R WCI  24
$$

IAZ004>006-015-016-023>025-035-036-190700-
   NORTH CENTRAL IOWA

CITY           SKY/WX    TMP DP  RH WIND       PRES   REMARKS
ALGONA *       CLOUDY    30  27  86 NW13      30.22R WCI  20
CLARION *      CLOUDY    30  28  93 NW8       30.21R WCI  23
ESTHERVILLE    CLOUDY    27  24  89 NW12      30.22R WCI  17
6HR MIN TEMP:  26; 6HR MAX TEMP:  31;

FORT DODGE *   CLOUDY    32  30  92 NW5       30.23R WCI  27
MASON CITY     CLOUDY    30  27  88 NW17      30.21R WCI  18
6HR MIN TEMP:  30; 6HR MAX TEMP:  32; 6HR PCP: TRACE;

FOREST CITY *  FAIR      30  28  93 NW9       30.21R WCI  22
WEBSTER CITY * CLOUDY    32  30  93 NW14      30.20R WCI  22
IOWA FALLS *   CLOUDY    32  31  95 NW14      30.20R WCI  22
$$

IAZ007>011-017>019-026>030-037>042-050>054-066-190700-
   NORTHEAST IOWA

CITY           SKY/WX    TMP DP  RH WIND       PRES   REMARKS
CEDAR RAPIDS   CLOUDY    32  30  92 NW12      30.14R WCI  23
6HR MIN TEMP:  32; 6HR MAX TEMP:  33; 6HR PCP: TRACE;

CHARLES CITY * CLOUDY    32  32 100 NW15      30.17R WCI  22
CLINTON *      FLURRIES  31  29  92 NW13      30.10R WCI  21
DECORAH *      FAIR      32  30  93 N9        30.13R WCI  24
DUBUQUE        CLOUDY    31  28  89 N12       30.10R WCI  22
6HR MIN TEMP:  30; 6HR MAX TEMP:  31; 6HR PCP:  0.04;

MONTICELLO *   CLOUDY    32  30  93 NW8       30.12R WCI  25
OELWEIN *      CLOUDY    30  30 100 NW12      30.15R WCI  21
WATERLOO       CLOUDY    32  30  92 NW10      30.16R WCI  24
6HR MIN TEMP:  29; 6HR MAX TEMP:  32; 6HR PCP: TRACE;

$$

IAZ064-065-067-068-078-190700-
   EAST CENTRAL IOWA

CITY           SKY/WX    TMP DP  RH WIND       PRES   REMARKS
DAVENPORT      CLOUDY    31  29  92 NW13      30.12R WCI  21
6HR MIN TEMP:  31; 6HR MAX TEMP:  32; 6HR PCP:  0.01;

IOWA CITY      CLOUDY    33  29  85 NW12      30.16R WCI  24
6HR MIN TEMP:  33; 6HR MAX TEMP:  34; 6HR PCP:  0.01;

MT. PLEASANT * CLOUDY    32  28  86 NW12G17   30.15R WCI  23
MUSCATINE *    CLOUDY    34  30  86 NW13G18   30.15R WCI  25
QUAD CITIES    CLOUDY    33  31  92 NW14      30.10R WCI  23
6HR MIN TEMP:  33; 6HR MAX TEMP:  34; 6HR PCP: TRACE;

$$

IAZ062-063-075>077-085>089-095>099-190700-
   SOUTHEAST IOWA

CITY           SKY/WX    TMP DP  RH WIND       PRES   REMARKS
BURLINGTON     CLOUDY    33  28  81 NW10G18   30.13R WCI  25
6HR MIN TEMP:  33; 6HR MAX TEMP:  35; 6HR PCP: TRACE;

FAIRFIELD *    CLOUDY    32  28  86 NW12G17   30.17R WCI  23
FORT MADISON * CLOUDY    34  28  80 NW14G20   30.15R WCI  24
KEOKUK *       CLOUDY    34  28  80 NW14      30.15R WCI  24
OSKALOOSA *    MOCLDY    30  28  94 NW10      30.19R WCI  21
CENTERVILLE *    N/A     32  32 100 W6        30.20R WCI  26
OTTUMWA        MOCLDY    31  27  85 NW15      30.18R WCI  20
6HR MIN TEMP:  30; 6HR MAX TEMP:  34; 6HR PCP:  0.02;

WASHINGTON *   CLOUDY    32  32 100 NW15      30.17R WCI  22
$$

ABBREVIATIONS USED IN REMARKS
   TC - TEMPERATURES IN CELSIUS
  WCI - WIND CHILL INDEX
   HX - HEAT INDEX
  VSB - VISIBILITY
$$





USA.gov is the U.S. government's official web portal to all federal, state and local government web resources and services.